{"data":{"norad_id":63175,"epoch":"2026-05-25T04:29:03.939360Z","epoch_age_seconds":55941,"freshness":"FRESH","line1":"1 63175U 25046S   26145.18685115  .00000025  00000+0  19495-4 0  9990","line2":"2 63175  88.9691 303.0961 0016956  20.2366 339.9453 13.51012710 69476","mean_motion":13.5101271,"eccentricity":0.0016956,"inclination_deg":88.9691,"raan_deg":303.0961,"arg_perigee_deg":20.2366,"mean_anomaly_deg":339.9453,"bstar":1.9495e-5,"rev_number":6947,"period_min":106.58671005397,"perigee_km":1055.908303716,"apogee_km":1081.1614573974,"semimajor_km":7446.6718805567,"source":"CELESTRAK","updated_at":"2026-05-25T13:38:03.542514Z"}}